Regional Weather Roundup
Issued by NWS

Home | Current Version | Previous Version | Text Only | Print | Product List | Glossary On
Versions: 1 2 3 4 5 6 7 8 9 10 11 12 13 14 15 16 17 18 19 20 21 22 23 24 25 26 27
000
ASUS42 KFFC 241103
RWRGA
WEATHER ROUNDUP FOR GEORGIA
NATIONAL WEATHER SERVICE PEACHTREE CITY GA
700 AM EDT WED AUG 24 2016

NOTE: "FAIR" INDICATES FEW OR NO CLOUDS BELOW 12,000 FEET WITH NO
SIGNIFICANT WEATHER AND/OR OBSTRUCTIONS TO VISIBILITY.

* = USE WITH CAUTION. THE STATIONS MARKED WITH AN ASTERISK MAY NOT
REPORT WEATHER SUCH AS PRECIPITATION, FOG, OR THUNDER AND ARE NOT
QUALITY CONTROLLED BY NWS.

THE REMARK "TC" DENOTES TEMPERATURE READING IN DEGREES CELSIUS.

GAZ001>058-241200-
NORTH GEORGIA

CITY           SKY/WX    TMP DP  RH WIND       PRES   REMARKS
ATLANTA        PTCLDY    74  73  97 SE5       30.25R
ATHENS         CLEAR     72  72 100 SE3       30.26R FOG
CHAMBLEE       CLOUDY    75  71  87 CALM      30.26R
PEACHTREE CITY PTCLDY    71  70  96 CALM      30.25R
ROME           MOCLDY    73  70  90 CALM      30.23R
WEST ATLANTA   PTCLDY    75  71  87 SE5       30.24R
GAINESVILLE    CLOUDY    72  67  84 E3        30.30R
CARTERSVILLE   PTCLDY    72  70  93 CALM      30.25R


CITY           SKY/WX    TMP DP  RH WIND       PRES   REMARKS
DALTON*        MOCLDY    72  70  94 CALM      30.25R
LAWRENCEVILLE* MOCLDY    73  72  94 CALM      30.26  FOG
MARIETTA       PTCLDY    74  71  91 E3        30.26R
KENNESAW*      PTCLDY    73  68  83 CALM      30.23
CANTON*        MOCLDY    72  64  78 NE5       30.29R
BLAIRSVILLE*     N/A    N/A N/A N/A MISG      30.31R
$$

GAZ059>098-102>109-241200-
CENTRAL GEORGIA

CITY           SKY/WX    TMP DP  RH WIND       PRES   REMARKS
AUGUSTA-BUSH   PTCLDY    71  70  96 CALM      30.24R
AUGUSTA-DANIEL CLOUDY    77  67  71 E5        30.26R
COLUMBUS       CLEAR     74  72  93 E6        30.21R
MACON          CLOUDY    75  73  93 CALM      30.23R
ROBINS AFB     MOCLDY    75  75 100 CALM      30.22R


CITY           SKY/WX    TMP DP  RH WIND       PRES   REMARKS
LAGRANGE*      PTCLDY    73  73 100 CALM      30.23R
SYLVANIA*      MOCLDY   N/A N/A N/A E5        30.24R
MILLEDGEVILLE* CLOUDY    77  77 100 CALM      30.24R
$$

GAZ099>101-110>166-241200-
SOUTH GEORGIA

CITY           SKY/WX    TMP DP  RH WIND       PRES   REMARKS
SAVANNAH       PTCLDY    74  71  91 N7        30.21R
VALDOSTA       CLOUDY    75  75 100 NE5       30.18S
ALMA           CLEAR     74  73  97 CALM      30.21R FOG
ST SIMONS      PTCLDY    82  71  69 E8        30.18R
FT STEWART     CLEAR     73  71  92 CALM      30.19R
ALBANY         CLEAR     76  73  91 NE6       30.21R
HUNTER AFB     CLEAR     75  74  97 VRB3      30.18S
MOODY AFB      MOCLDY    74  73  97 CALM      30.18R FOG
BRUNSWICK      PTCLDY    77  75  94 CALM      30.19R


CITY           SKY/WX    TMP DP  RH WIND       PRES   REMARKS
BAINBRIDGE*    CLOUDY    77  73  88 CALM      30.18S
MOULTRIE*      CLEAR     73  73 100 CALM      30.20R FOG
VIDALIA*       PTCLDY    73  73 100 NE5       30.23R
WAYCROSS*        N/A     76  76 100 CALM      30.19R FOG
DOUGLAS*       CLEAR     73  73 100 NE3       30.22R
$$




USA.gov is the U.S. government's official web portal to all federal, state and local government web resources and services.